Location: *
(47.2969°N, 10.2930°E)
Time: 18:01:12
(UTC+00:00)

Cosmos 1076 Rocket - Pass Details

Date: 09 April 2020
Orbit: 590 x 612 km, 82.5° (Epoch: 24 May)

Event Time Altitude Azimuth Distance (km) Brightness Sun altitude
Rises 19:38:32 0° 355° (N) 2,849 7.5 -16.2°
Reaches altitude 10° 19:40:48 10° 0° (N) 1,946 6.5 -16.5°
Maximum altitude 19:45:00 51° 77° (ENE) 763 3.7 -17.1°
Enters shadow 19:46:23 36° 130° (SE) 968 4.0 -17.3°
